Hourly Data Report for July 14, 2017

PITT MEADOWS CS
BRITISH COLUMBIA

49°12'29.964" N
122°41'24.076" W
5.00 m
1106178
71775
WMM

Download Data

Hourly Data (July 2017)
Hourly Data Report for July 14, 2017
TIME
LST
Temp Definition
°C
Dew Point Definition
°C
Rel Hum Definition
%
Precip. Amount Definition
mm

Wind Dir Definition
10's deg

Wind Spd Definition
km/h
Visibility Definition
km
Stn Press Definition
kPa
Hmdx Definition


Wind Chill Definition


Weather Definition


00:00 14.0 11.5 85 0.0 11 2   102.03     LegendNANA
01:00 13.2 10.7 85 0.0 13 2   102.04     LegendNANA
02:00 12.6 10.8 89 0.0   0   102.05     LegendNANA
03:00 11.6 9.8 89 0.0 33 1   102.05     LegendNANA
04:00 11.3 10.0 91 0.0 32 2   102.07     LegendNANA
05:00 11.4 9.7 90 0.0 11 3   102.11     LegendNANA
06:00 15.0 10.7 76 0.0 8 1   102.13     LegendNANA
07:00 16.2 10.5 69 0.0 14 3   102.14     LegendNANA
08:00 17.3 10.4 64 0.0 24 3   102.12     LegendNANA
09:00 19.5 11.3 59 0.0 22 2   102.09     LegendNANA
10:00 20.8 11.8 56 0.0 23 4   102.06     LegendNANA
11:00 22.5 11.5 50 0.0 23 5   102.04 25   LegendNANA
12:00 23.8 11.9 47 0.0 21 6   101.97 26   LegendNANA
13:00 24.9 12.3 46 0.0 20 6   101.93 27   LegendNANA
14:00 25.3 12.1 44 0.0 21 9   101.89 28   LegendNANA
15:00 26.2 9.6 35 0.0 23 8   101.84 27   LegendNANA
16:00 25.8 11.3 40 0.0 19 7   101.81 28   LegendNANA
17:00 25.6 10.8 40 0.0 20 7   101.75 27   LegendNANA
18:00 24.7 11.1 42 0.0 21 7   101.73 27   LegendNANA
19:00 23.5 10.8 45 0.0 18 6   101.71 25   LegendNANA
20:00 21.4 11.1 52 0.0 19 7   101.74     LegendNANA
21:00 19.5 11.5 60 0.0 17 1   101.79     LegendNANA
22:00 18.2 12.1 68 0.0 10 2   101.82     LegendNANA
23:00 18.1 12.3 69 0.0 36 2   101.84     LegendNANA

Notes on Data Quality.

Legend

  • E = Estimated
  • M = Missing
  • NA = Not Available*
  • [empty] = Indicates an unobserved value
Date modified: